Temp
-16 -16 -15 -15 -15 -15 -15 -15 -15 -15 -15 -14 -14 -14 -13 -13 -13 -13 -13 -14 -13 -13 -13 -13 -12 -12 -11 -11 -10 -9 -9 -9 -9 -9 -9 -10 -10 -9 -9 -10 -10 -10 -10 -10
-16 -16 -16 -16 -16 -16 -15 -15 -15 -15 -15 -14 -14 -14 -14 -13 -13 -13 -13 -13 -13 -14 -13 -13 -13 -12 -12 -12 -11 -10 -9 -9 -9 -10 -10 -10 -11 -11 -10 -9 -9 -10 -11 -10
-16 -16 -16 -16 -16 -16 -16 -16 -15 -15 -15 -15 -14 -14 -14 -14 -13 -13 -13 -13 -13 -13 -14 -13 -13 -13 -13 -12 -12 -11 -10 -9 -10 -11 -10 -10 -10 -11 -10 -10 -10 -10 -10 -10
-17 -17 -17 -17 -17 -16 -16 -16 -16 -15 -15 -15 -15 -13 -14 -14 -14 -14 -13 -13 -13 -13 -13 -13 -13 -12 -12 -13 -12 -12 -12 -12 -12 -11 -10 -10 -10 -10 -11 -11 -11 -11 -10 -10
-18 -17 -17 -18 -18 -17 -17 -16 -16 -16 -15 -15 -16 -14 -13 -13 -14 -14 -14 -13 -13 -13 -12 -12 -12 -12 -12 -12 -12 -12 -12 -11 -11 -11 -10 -10 -9 -10 -10 -11 -11 -10 -11 -11
-18 -18 -18 -18 -18 -18 -17 -17 -17 -16 -16 -16 -16 -16 -13 -14 -14 -14 -14 -14 -13 -13 -13 -12 -13 -12 -12 -12 -12 -13 -13 -12 -12 -11 -10 -9 -9 -10 -10 -10 -11 -10 -11 -12
-19 -19 -19 -19 -19 -19 -18 -19 -18 -17 -17 -17 -16 -15 -14 -16 -15 -15 -14 -14 -14 -14 -13 -13 -12 -12 -12 -12 -12 -12 -12 -12 -12 -12 -11 -11 -10 -11 -11 -11 -11 -11 -11 -12
-19 -19 -19 -19 -20 -19 -19 -19 -19 -18 -17 -17 -16 -15 -15 -16 -16 -15 -14 -14 -14 -14 -13 -13 -12 -12 -12 -12 -12 -12 -11 -11 -12 -11 -11 -10 -11 -10 -11 -11 -11 -11 -11 -12
-18 -18 -19 -20 -19 -19 -19 -19 -19 -19 -18 -18 -17 -16 -16 -17 -18 -17 -17 -16 -15 -14 -13 -13 -13 -13 -12 -12 -12 -11 -11 -11 -11 -12 -12 -11 -11 -11 -11 -12 -11 -10 -11 -12
-18 -18 -19 -19 -19 -19 -19 -19 -19 -19 -18 -18 -17 -17 -16 -18 -19 -19 -18 -17 -17 -16 -15 -14 -13 -13 -13 -12 -11 -11 -11 -11 -11 -11 -11 -10 -10 -11 -11 -11 -11 -10 -11 -12
-19 -19 -19 -19 -20 -20 -19 -19 -19 -19 -19 -19 -18 -16 -19 -20 -20 -19 -20 -21 -21 -20 -20 -19 -17 -13 -12 -12 -12 -11 -11 -11 -11 -10 -10 -10 -10 -10 -10 -10 -10 -10 -11 -12
-19 -18 -19 -20 -20 -20 -20 -20 -20 -19 -19 -19 -19 -17 -20 -20 -21 -20 -20 -20 -20 -20 -20 -20 -20 -19 -17 -12 -11 -12 -11 -10 -10 -10 -10 -10 -10 -10 -10 -10 -10 -10 -10 -11
-19 -18 -19 -19 -20 -20 -20 -20 -20 -20 -19 -19 -19 -18 -20 -20 -20 -20 -20 -20 -20 -20 -20 -19 -19 -19 -19 -16 -12 -11 -11 -10 -10 -10 -10 -10 -10 -10 -10 -10 -10 -10 -10 -10
-19 -19 -19 -20 -21 -20 -21 -20 -20 -20 -20 -20 -19 -18 -20 -21 -20 -21 -20 -20 -20 -19 -19 -19 -19 -19 -19 -17 -15 -12 -11 -10 -10 -10 -10 -10 -10 -10 -10 -11 -11 -11 -10 -10
-20 -19 -20 -20 -20 -21 -21 -20 -20 -20 -20 -20 -20 -20 -20 -20 -20 -21 -21 -20 -20 -20 -19 -19 -19 -19 -18 -17 -17 -14 -12 -11 -10 -10 -10 -10 -10 -10 -10 -10 -11 -11 -11 -10
-21 -20 -20 -20 -21 -21 -21 -21 -20 -21 -21 -20 -20 -20 -21 -20 -20 -21 -21 -21 -20 -19 -19 -19 -19 -18 -17 -17 -17 -17 -14 -11 -10 -10 -10 -10 -10 -11 -10 -10 -11 -11 -11 -11
-21 -21 -21 -20 -21 -21 -21 -21 -21 -21 -21 -21 -20 -20 -20 -20 -20 -20 -21 -20 -20 -20 -20 -20 -18 -17 -17 -17 -17 -16 -16 -15 -10 -10 -10 -10 -10 -11 -11 -10 -11 -11 -11 -11
-21 -22 -21 -21 -21 -20 -21 -21 -21 -21 -21 -21 -21 -21 -21 -20 -20 -20 -21 -20 -20 -20 -20 -19 -18 -17 -17 -17 -16 -15 -16 -15 -12 -10 -10 -10 -11 -11 -11 -11 -11 -11 -11 -11
-22 -22 -21 -22 -21 -21 -21 -21 -21 -21 -21 -21 -21 -21 -21 -21 -20 -20 -20 -20 -20 -20 -20 -19 -17 -18 -17 -15 -14 -14 -14 -13 -11 -12 -11 -11 -11 -11 -11 -11 -11 -11 -11 -11
-22 -22 -22 -22 -22 -21 -21 -22 -22 -21 -21 -21 -21 -21 -21 -21 -19 -20 -20 -20 -20 -20 -19 -18 -17 -18 -17 -15 -14 -14 -14 -13 -13 -13 -12 -12 -12 -12 -11 -11 -11 -11 -11 -11
-22 -22 -22 -22 -21 -21 -22 -22 -21 -21 -21 -21 -21 -21 -21 -20 -20 -19 -19 -19 -19 -19 -19 -18 -18 -16 -16 -16 -15 -15 -14 -14 -13 -13 -13 -12 -12 -12 -11 -11 -11 -11 -11 -11
-22 -22 -22 -22 -21 -22 -22 -21 -21 -21 -21 -21 -21 -21 -20 -20 -19 -19 -19 -19 -18 -17 -18 -18 -17 -16 -15 -16 -15 -14 -14 -14 -14 -14 -13 -13 -12 -12 -12 -12 -11 -11 -11 -11
-22 -22 -22 -22 -22 -21 -21 -21 -21 -21 -20 -20 -20 -20 -20 -20 -19 -19 -19 -19 -17 -15 -16 -16 -16 -16 -15 -16 -16 -16 -15 -14 -15 -14 -14 -13 -13 -12 -12 -12 -11 -11 -11 -11
-21 -22 -21 -21 -21 -21 -21 -22 -22 -21 -21 -21 -21 -20 -19 -18 -18 -18 -18 -17 -15 -15 -15 -15 -16 -16 -16 -15 -15 -15 -15 -14 -14 -14 -14 -13 -13 -12 -12 -12 -12 -12 -12 -12
-21 -21 -21 -21 -21 -21 -21 -21 -21 -21 -21 -21 -20 -19 -19 -18 -17 -17 -16 -15 -14 -14 -14 -15 -15 -15 -16 -15 -14 -14 -15 -14 -14 -14 -14 -13 -13 -13 -13 -13 -12 -12 -13 -12
-21 -21 -21 -21 -21 -21 -21 -21 -21 -20 -19 -19 -19 -18 -18 -17 -16 -16 -15 -14 -14 -14 -14 -14 -14 -15 -15 -14 -14 -14 -14 -14 -14 -14 -13 -13 -13 -12 -12 -12 -12 -12 -11 -11
Height
5707 5707 5707 5707 5708 5709 5709 5710 5711 5712 5714 5715 5718 5719 5722 5727 5729 5733 5736 5741 5740 5749 5753 5756 5764 5769 5775 5780 5783 5787 5787 5789 5796 5801 5809 5818 5826 5831 5834 5837 5840 5842 5844 5844
5702 5701 5699 5699 5700 5701 5701 5701 5702 5704 5705 5707 5709 5712 5711 5717 5719 5722 5726 5728 5734 5733 5735 5744 5750 5756 5762 5768 5774 5778 5781 5783 5789 5795 5797 5807 5817 5824 5828 5831 5832 5835 5834 5836
5694 5694 5692 5692 5692 5692 5692 5692 5693 5694 5696 5697 5699 5703 5707 5707 5709 5710 5714 5717 5720 5725 5727 5729 5735 5741 5749 5757 5763 5769 5772 5777 5780 5787 5792 5794 5804 5813 5819 5824 5828 5831 5828 5833
5687 5686 5685 5685 5684 5683 5683 5683 5684 5685 5686 5688 5690 5689 5698 5699 5700 5700 5701 5705 5708 5710 5714 5720 5723 5726 5735 5739 5749 5756 5762 5768 5773 5777 5785 5791 5796 5801 5808 5812 5818 5820 5825 5825
5681 5679 5678 5678 5676 5675 5675 5675 5675 5675 5677 5677 5682 5679 5683 5689 5689 5690 5689 5690 5693 5697 5701 5705 5710 5714 5718 5724 5731 5739 5748 5755 5761 5767 5773 5779 5786 5792 5798 5802 5808 5813 5817 5818
5676 5672 5671 5671 5670 5669 5668 5668 5667 5668 5668 5668 5670 5671 5671 5673 5673 5676 5677 5676 5678 5680 5682 5686 5693 5699 5704 5708 5714 5721 5730 5738 5747 5751 5758 5766 5774 5780 5786 5792 5796 5804 5806 5807
5667 5666 5665 5664 5663 5662 5661 5662 5661 5662 5661 5662 5662 5662 5664 5659 5656 5656 5661 5662 5661 5662 5667 5672 5677 5681 5688 5693 5699 5704 5713 5724 5731 5737 5745 5751 5759 5766 5773 5780 5785 5792 5797 5799
5661 5660 5658 5658 5656 5654 5654 5655 5654 5650 5652 5654 5653 5654 5655 5649 5643 5638 5639 5642 5644 5647 5652 5657 5660 5665 5671 5677 5684 5691 5696 5705 5715 5723 5731 5737 5743 5752 5757 5767 5775 5782 5786 5791
5653 5653 5651 5649 5648 5647 5645 5646 5647 5644 5643 5641 5644 5646 5644 5640 5630 5628 5623 5622 5626 5632 5636 5638 5644 5650 5654 5659 5668 5676 5683 5690 5700 5709 5717 5724 5732 5739 5746 5754 5764 5771 5775 5779
5646 5642 5644 5642 5639 5638 5636 5639 5639 5637 5635 5633 5633 5634 5633 5624 5619 5614 5614 5612 5611 5612 5615 5619 5622 5627 5635 5641 5649 5659 5669 5677 5684 5692 5700 5708 5719 5726 5734 5742 5753 5760 5764 5767
5638 5636 5637 5634 5632 5628 5629 5630 5631 5630 5629 5626 5623 5625 5618 5613 5609 5607 5605 5602 5601 5600 5599 5600 5600 5606 5613 5620 5631 5639 5650 5662 5670 5678 5687 5695 5703 5713 5720 5728 5739 5748 5752 5755
5631 5626 5626 5626 5623 5623 5622 5622 5622 5621 5620 5617 5616 5617 5609 5604 5600 5596 5592 5589 5593 5593 5590 5588 5588 5589 5591 5596 5609 5620 5632 5645 5655 5664 5673 5683 5690 5699 5706 5717 5728 5738 5741 5745
5622 5619 5617 5618 5617 5615 5614 5614 5613 5611 5609 5610 5605 5606 5598 5594 5591 5587 5581 5580 5580 5581 5579 5578 5577 5575 5575 5576 5586 5599 5612 5624 5637 5648 5658 5667 5678 5686 5696 5706 5716 5725 5731 5735
5612 5611 5610 5608 5607 5605 5604 5606 5604 5602 5599 5600 5598 5596 5597 5589 5585 5581 5577 5574 5571 5570 5569 5568 5566 5563 5558 5557 5561 5574 5589 5603 5616 5630 5643 5655 5667 5677 5686 5696 5706 5712 5719 5723
5601 5601 5600 5599 5598 5594 5595 5597 5596 5592 5594 5587 5593 5588 5586 5583 5578 5574 5569 5566 5563 5561 5559 5556 5553 5548 5543 5542 5544 5551 5565 5580 5595 5610 5626 5642 5655 5666 5675 5685 5695 5701 5708 5713
5591 5590 5589 5590 5589 5586 5583 5589 5589 5587 5586 5582 5581 5580 5577 5574 5570 5567 5563 5559 5556 5554 5550 5546 5537 5532 5530 5532 5534 5536 5540 5556 5571 5592 5611 5626 5639 5652 5663 5673 5683 5690 5696 5705
5581 5581 5580 5581 5580 5576 5574 5583 5580 5580 5579 5576 5572 5572 5569 5566 5563 5561 5557 5552 5548 5545 5540 5533 5526 5526 5525 5523 5521 5523 5527 5534 5553 5577 5596 5612 5626 5639 5651 5661 5671 5680 5689 5697
5575 5573 5571 5572 5571 5570 5572 5573 5572 5570 5571 5568 5563 5562 5561 5558 5555 5553 5551 5546 5542 5538 5533 5527 5523 5520 5518 5516 5516 5513 5514 5525 5540 5560 5581 5599 5614 5628 5640 5650 5662 5672 5681 5689
5566 5565 5565 5565 5564 5566 5567 5565 5563 5560 5565 5560 5553 5554 5552 5549 5545 5546 5542 5540 5535 5531 5528 5524 5522 5519 5515 5512 5505 5509 5512 5526 5534 5548 5570 5590 5604 5619 5632 5643 5654 5665 5672 5680
5561 5563 5563 5563 5559 5558 5560 5558 5556 5554 5552 5552 5547 5544 5541 5541 5537 5541 5535 5532 5530 5527 5524 5522 5521 5518 5517 5513 5510 5510 5513 5509 5498 5540 5562 5582 5600 5612 5625 5636 5647 5657 5665 5672
5558 5558 5558 5556 5554 5555 5554 5552 5548 5545 5546 5542 5538 5535 5533 5531 5529 5531 5529 5527 5523 5521 5520 5519 5519 5520 5519 5518 5520 5521 5517 5523 5531 5544 5561 5579 5594 5607 5617 5630 5642 5651 5658 5665
5555 5555 5554 5553 5551 5549 5546 5544 5541 5537 5536 5531 5529 5525 5522 5523 5523 5520 5522 5521 5517 5514 5516 5517 5517 5520 5520 5521 5523 5525 5529 5534 5540 5553 5568 5583 5595 5606 5618 5628 5637 5645 5652 5658
5554 5553 5553 5550 5547 5542 5540 5537 5533 5528 5526 5523 5518 5517 5512 5514 5515 5512 5512 5512 5510 5509 5511 5511 5513 5516 5518 5522 5524 5529 5532 5540 5546 5559 5571 5581 5592 5603 5613 5623 5631 5638 5646 5654
5551 5549 5546 5544 5543 5538 5534 5530 5525 5520 5515 5511 5506 5500 5501 5498 5502 5501 5500 5502 5503 5506 5508 5510 5513 5515 5518 5521 5525 5531 5537 5544 5551 5561 5571 5582 5592 5602 5611 5618 5625 5634 5642 5649
5548 5546 5544 5541 5537 5534 5529 5522 5514 5509 5504 5496 5491 5489 5488 5485 5487 5487 5490 5494 5498 5503 5506 5509 5513 5514 5517 5521 5528 5535 5541 5548 5556 5563 5573 5582 5590 5598 5607 5614 5621 5629 5637 5644
5548 5546 5542 5537 5531 5524 5520 5513 5504 5494 5489 5486 5484 5481 5481 5478 5479 5481 5485 5491 5497 5501 5505 5509 5512 5515 5518 5524 5529 5535 5542 5551 5557 5565 5573 5580 5585 5594 5604 5612 5618 5627 5634 5640
Wind_Speed
28 31 33 33 32 32 34 35 37 38 39 41 40 42 42 41 42 41 43 40 45 62 69 67 66 68 65 64 63 63 58 52 58 57 52 37 37 41 38 37 34 37 37 35
25 26 30 32 34 34 35 37 37 37 38 40 40 40 42 40 41 41 42 42 42 48 54 81 65 67 69 66 66 68 68 58 56 49 39 40 43 41 44 46 43 39 42 42
24 26 28 29 31 32 33 36 39 40 39 40 41 41 40 43 42 44 44 45 47 48 50 61 73 72 70 69 68 70 72 73 67 48 54 39 47 48 47 45 44 42 47 42
22 24 26 25 27 31 30 34 35 36 38 38 40 44 40 42 45 47 47 47 49 51 53 54 59 69 84 75 73 73 71 69 66 66 68 67 59 55 50 48 48 49 50 52
23 24 23 23 27 29 30 31 32 33 33 35 32 42 41 40 42 44 47 51 53 54 56 58 60 62 64 72 80 78 77 77 76 75 73 73 71 65 57 57 55 53 44 43
20 25 24 24 26 28 31 30 31 31 31 33 31 34 41 38 41 42 44 48 54 57 58 59 61 62 65 67 65 76 81 79 77 76 77 76 76 69 64 64 56 46 43 45
22 23 24 26 27 28 30 27 29 29 29 31 31 35 35 35 39 44 45 45 49 53 59 62 62 64 66 68 72 70 67 84 79 77 75 75 74 70 67 62 56 44 44 48
22 23 25 25 26 30 31 29 27 30 28 29 31 35 31 33 38 47 51 50 50 54 56 57 65 67 67 69 71 72 71 65 85 84 78 75 71 69 67 62 56 37 40 46
23 21 22 23 26 30 31 28 26 27 27 30 30 28 30 30 34 43 49 53 55 56 59 62 62 64 70 72 70 72 73 71 67 73 79 76 71 69 68 68 55 39 40 50
24 26 18 21 25 29 34 28 25 24 27 26 25 25 27 29 31 40 46 51 53 54 58 63 66 68 67 70 73 72 73 74 72 70 70 69 65 63 66 62 53 41 40 50
26 26 21 23 24 31 30 27 26 26 26 28 28 26 29 20 27 33 38 40 41 38 39 45 60 71 74 73 71 74 74 72 74 73 71 70 67 62 61 57 48 40 46 56
27 29 24 23 27 29 31 28 28 29 30 30 28 22 24 20 24 33 37 40 34 32 35 38 39 44 62 81 78 73 74 74 72 74 74 72 68 63 61 56 50 43 47 49
30 31 27 22 24 29 31 30 29 30 32 26 32 26 28 25 33 38 40 33 35 38 37 37 38 39 43 62 81 79 74 73 74 73 72 71 69 67 63 57 49 48 48 51
33 31 26 25 23 28 32 30 30 32 34 29 29 27 18 27 32 38 35 36 39 39 36 38 43 45 49 45 57 82 79 75 73 74 72 69 66 64 62 58 51 48 47 51
34 31 29 25 25 29 30 29 29 33 30 37 28 28 29 26 28 29 29 33 37 39 38 40 36 43 47 41 40 51 77 80 75 73 72 70 66 63 62 58 53 51 49 48
34 32 30 26 23 28 33 30 28 30 32 35 34 29 30 32 29 25 24 24 26 33 36 41 39 27 30 32 27 37 52 73 79 74 68 70 69 64 62 57 54 52 51 45
32 30 29 24 23 28 36 23 30 30 29 32 34 32 32 32 32 26 26 27 24 29 33 30 29 25 18 29 32 38 39 50 76 73 68 64 68 65 63 60 55 53 49 44
30 28 29 22 23 25 17 22 24 27 28 32 37 34 33 31 32 30 29 28 27 30 32 20 22 27 25 22 19 15 31 47 59 72 69 64 66 64 62 60 56 51 44 40
20 21 19 20 22 20 17 22 27 31 29 34 41 37 34 34 30 26 26 28 34 33 28 11 15 19 15 10 25 26 27 24 49 60 64 63 64 63 61 59 53 46 43 40
12 9 15 18 25 25 19 26 29 32 31 30 35 35 34 33 29 20 28 33 29 31 18 7 16 21 21 3 15 26 26 16 48 57 63 63 62 62 58 56 52 46 40 40
6 11 15 18 23 22 25 25 26 28 28 25 28 28 33 33 31 25 29 27 30 28 20 9 14 9 12 11 2 13 17 27 40 55 61 64 64 61 59 53 45 42 39 37
7 11 20 24 25 24 22 18 23 26 21 25 25 30 31 28 25 29 27 27 29 18 13 10 11 13 11 10 12 6 22 24 36 43 52 55 56 53 48 45 43 41 40 41
15 20 22 21 17 19 22 24 26 31 32 32 33 30 33 29 28 32 32 30 27 10 12 13 14 16 13 15 10 8 17 29 32 38 42 49 50 49 46 43 41 40 40 36
12 12 12 12 17 23 25 26 30 32 41 43 45 48 40 38 31 33 33 32 19 12 11 8 10 10 12 12 13 14 18 38 31 30 33 41 40 42 42 41 41 40 38 37
10 11 13 16 24 27 30 36 42 44 46 48 48 44 39 32 19 23 28 21 11 10 7 7 8 13 13 13 17 19 16 16 32 29 36 36 38 38 40 42 43 41 38 34
12 17 20 24 29 34 33 36 39 42 40 37 34 30 29 19 10 17 24 18 13 11 12 9 10 12 14 17 16 16 22 27 26 26 31 31 40 44 44 47 44 37 32 28
Wind_Direction
264 263 263 262 261 259 259 257 253 252 249 250 248 248 250 247 250 248 248 246 254 231 218 220 223 224 221 222 231 232 228 213 219 212 228 231 238 244 249 253 258 264 266 269
271 264 263 262 262 260 258 257 256 254 253 253 250 250 252 251 250 248 246 246 238 248 246 221 221 222 222 223 225 230 235 228 230 227 238 225 235 246 255 250 251 258 263 258
279 274 267 265 263 261 259 259 258 258 255 257 254 250 250 254 254 253 248 245 242 237 243 230 225 222 223 225 224 230 234 239 245 240 243 231 243 242 246 250 258 264 261 264
281 275 270 268 265 264 263 261 261 261 260 259 258 256 249 251 253 254 254 250 245 243 239 237 243 235 230 223 226 229 232 236 240 238 239 242 245 246 248 252 255 263 266 271
280 277 272 266 260 261 261 264 266 267 268 265 265 264 257 252 251 251 252 251 249 245 241 239 237 239 243 237 225 227 230 233 237 240 242 244 247 248 249 251 254 260 264 258
273 271 269 266 261 261 263 263 265 267 269 269 271 270 265 270 266 258 254 251 250 248 245 243 239 237 237 240 244 235 228 229 233 237 240 241 245 248 251 253 258 258 257 261
274 259 259 263 266 263 262 264 267 266 266 269 271 270 271 279 277 270 260 257 255 248 247 246 244 240 237 237 239 243 240 227 228 233 238 242 247 251 249 253 260 260 255 257
280 265 259 259 264 265 258 260 268 271 273 272 268 271 273 280 283 279 271 265 260 256 252 247 244 243 240 238 238 240 243 241 233 236 239 244 246 252 255 258 257 251 254 262
290 276 263 261 262 265 257 258 264 272 278 280 281 282 280 284 280 279 280 278 270 263 258 254 248 243 242 240 237 237 239 242 238 236 239 242 246 249 248 252 254 246 254 263
298 289 282 268 269 258 255 261 263 266 279 288 296 299 290 286 283 282 281 278 276 269 260 256 253 250 244 241 239 237 235 237 240 239 240 243 243 244 244 246 246 242 244 257
297 293 289 271 266 256 258 264 262 266 272 286 304 311 316 294 292 283 274 272 267 268 264 257 252 249 249 246 240 237 236 233 235 237 239 242 244 243 246 249 247 241 245 254
295 296 293 278 265 254 252 257 262 267 276 282 302 317 321 290 279 271 260 266 266 264 261 260 256 255 252 243 243 239 234 233 232 233 236 237 241 242 244 246 247 242 244 243
292 292 295 286 266 259 253 253 262 269 273 287 294 319 322 297 279 265 259 253 255 261 263 254 257 253 257 251 240 238 236 232 230 230 231 234 236 239 242 243 242 242 241 244
287 289 292 285 267 261 248 253 260 266 273 286 298 302 303 286 301 288 267 259 260 266 265 262 260 260 264 254 250 235 234 232 229 228 227 228 231 234 238 240 239 240 239 240
283 287 288 281 271 264 255 250 259 271 282 279 297 298 299 293 289 287 279 274 269 272 272 273 274 273 260 247 233 237 234 228 227 226 223 223 225 227 232 234 234 236 237 239
281 286 286 286 277 267 256 247 257 267 274 278 287 296 291 291 292 289 290 288 277 274 272 276 284 264 253 248 249 237 221 227 224 223 221 218 219 220 226 229 230 233 236 240
280 289 285 279 282 272 260 251 255 266 272 276 281 284 287 288 288 288 292 297 302 297 297 302 283 248 266 259 251 235 228 218 219 217 217 215 215 217 222 227 226 230 235 238
280 278 275 280 277 276 268 257 265 268 269 273 280 283 289 288 284 284 291 289 297 303 313 298 280 263 266 239 291 243 226 218 208 211 211 209 209 212 218 224 225 228 232 233
268 276 286 284 282 282 284 281 277 279 278 279 277 284 281 282 282 287 282 290 300 306 315 289 261 289 282 250 55 162 160 149 197 203 203 202 203 208 214 221 225 226 231 232
270 281 274 272 279 283 290 288 283 282 281 276 279 278 274 277 283 275 282 292 296 302 312 277 261 280 281 75 86 185 211 135 137 178 189 192 197 206 213 219 223 224 228 227
309 305 287 285 284 290 293 294 286 282 287 289 287 280 273 277 279 267 276 284 288 292 291 279 254 266 264 255 83 170 187 170 171 176 181 187 198 204 210 216 220 224 225 222
239 233 283 299 303 306 288 277 283 286 291 292 284 288 285 277 270 274 275 278 267 263 261 261 257 278 162 223 231 202 180 167 164 174 183 191 199 206 212 216 219 224 219 219
254 268 291 303 306 298 304 301 298 296 293 296 296 291 288 284 272 270 276 270 256 250 229 250 248 262 219 222 214 212 157 158 154 169 182 191 198 203 207 214 219 216 210 213
327 319 311 324 319 309 307 303 297 291 296 296 292 291 290 285 272 266 259 250 224 229 213 209 185 193 197 178 164 163 127 154 160 168 180 188 194 205 209 210 205 200 203 205
352 333 303 299 310 305 300 296 294 292 292 290 285 292 297 295 292 232 235 209 196 207 208 201 179 179 176 152 156 168 166 168 175 172 176 185 193 202 199 197 195 194 196 200
4 349 332 323 316 314 310 302 296 293 296 297 300 299 295 287 236 226 219 174 182 197 190 160 160 169 165 157 169 179 173 163 179 184 196 193 196 197 199 195 191 188 194 202